Santo Island/Pekoa Airport, Vanuatu

10:29 PM +11 on June 27, 2017 (GMT +1100)
Santo Island/Pekoa Airport

Weather History for 91554 - September, 2013

Change the Weather History Date:

Tuesday, September 24, 2013

  Actual Average Record
Temperature  
Mean Temperature 77 °F -  
Max Temperature 85 °F - - ()
Min Temperature 69 °F - - ()
Cooling Degree Days 12    
Growing Degree Days 27 (Base 50)    
Moisture  
Dew Point 70 °F    
Average Humidity 73    
Maximum Humidity 91    
Minimum Humidity 43    
Precipitation  
Precipitation 0.00 in - - ()
Sea Level Pressure  
Sea Level Pressure 29.85 in    
Wind  
Wind Speed 9 mph ()    
Max Wind Speed 17 mph    
Max Gust Speed -    
Visibility 8.3 miles    
Events      
T = Trace of Precipitation, MM = Missing Value Source: Averaged Metar Reports

Daily Weather History Graph

Daily Weather History Graph

Search for Another Location

Airport or City:

Trip Planner

Search our weather history database for the weather conditions in past years. The results will help you decide how hot, cold, wet, or windy it might be!

Date:

Astronomy

Sep. 24, 2013 Rise Set
Actual Time 5:39 AM +11 5:47 PM +11
Civil Twilight 5:18 AM +11 6:08 PM +11
Nautical Twilight 4:53 AM +11 6:33 PM +11
Astronomical Twilight 4:28 AM +11 6:58 PM +11
Moon 9:59 PM +11 (9/24) 8:50 AM +11 (9/24)
Length of Visible Light 12h 50m
Length of Day
12h 07m
Waning Gibbous, 78% of the Moon is Illuminated
Sep 24
Waning Gibbous
Sep 27
Last Quarter
Oct 5
New
Oct 12
First Quarter
Oct 19
Full

Hourly Weather History & Observations

Time (+11) Temp. Heat Index Dew Point Humidity Pressure Visibility Wind Dir Wind Speed Gust Speed Precip Events Conditions
2:00 AM 73 °F - 71 °F 91% 29.78 in 12 mi South 9.2 mph - -   Partly Cloudy
2:00 AM 73.4 °F - 69.8 °F 88% 29.77 in 6.2 mi South 9.2 mph - N/A   Overcast
5:00 AM 75 °F - 72 °F 88% 29.81 in 12 mi SSE 6.9 mph - -   Partly Cloudy
5:00 AM 75.2 °F - 71.6 °F 89% 29.80 in 6.2 mi SSE 6.9 mph - N/A   Mostly Cloudy
6:00 AM 77.0 °F - 71.6 °F 83% 29.83 in 6.2 mi SSE 9.2 mph - N/A   Mostly Cloudy
8:00 AM 79 °F - 71 °F 72% 29.86 in 12 mi SE 11.5 mph - -   Partly Cloudy
8:00 AM 78.8 °F - 69.8 °F 74% 29.86 in 6.2 mi SE 11.5 mph - N/A   Mostly Cloudy
9:00 AM 80.6 °F 85.4 °F 73.4 °F 79% 29.86 in 6.2 mi SSE 11.5 mph - N/A   Mostly Cloudy
10:00 AM 80.6 °F 85.4 °F 73.4 °F 79% 29.86 in 6.2 mi SSE 17.3 mph - N/A   Mostly Cloudy
11:00 AM 80 °F - 70 °F 65% 29.87 in 12 mi SSE 12.7 mph - -   Partly Cloudy
11:00 AM 78.8 °F - 69.8 °F 74% 29.86 in 6.2 mi SSE 12.7 mph - N/A   Mostly Cloudy
12:00 PM 82.4 °F 88.2 °F 73.4 °F 74% 29.83 in 6.2 mi SSE 16.1 mph - N/A   Mostly Cloudy
1:00 PM 80.6 °F 84.6 °F 71.6 °F 74% 29.83 in 6.2 mi South 16.1 mph - N/A   Mostly Cloudy
2:00 PM 82 °F - 71 °F 61% 29.83 in 12 mi South 16.1 mph - -   Partly Cloudy
2:00 PM 80.6 °F 83.9 °F 69.8 °F 70% 29.83 in 6.2 mi South 16.1 mph - N/A   Mostly Cloudy
3:00 PM 80.6 °F 84.6 °F 71.6 °F 74% 29.80 in 6.2 mi South 15.0 mph - N/A   Mostly Cloudy
4:00 PM 78.8 °F - 66.2 °F 65% 29.83 in 6.2 mi South 13.8 mph - N/A   Scattered Clouds
5:00 PM 79 °F - 67 °F 59% 29.84 in 12 mi South 13.8 mph - -   Partly Cloudy
8:00 PM 75 °F - 68 °F 74% 29.92 in 12 mi SSE 3.5 mph - -   Partly Cloudy
8:00 PM 75.2 °F - 68.0 °F 78% 29.92 in 6.2 mi SSE 3.5 mph - N/A   Scattered Clouds
11:00 PM 85 °F - 66 °F 43% 29.91 in 12 mi 3.5 mph - -   Partly Cloudy
11:00 PM 84.2 °F 85.6 °F 64.4 °F 51% 29.89 in 6.2 mi Variable 3.5 mph - N/A   Partly Cloudy